Preview of NWS' New Version of Forecast
This preview is not operational and should not be used for support decisions.

Regional Weather Roundup (RWR)

Issued by National Weather Service (NWS)

                            
000
ASUS46 KSEW 201510
RWRWA 

WASHINGTON REGIONAL WEATHER ROUNDUP
NATIONAL WEATHER SERVICE SEATTLE WA
800 AM PDT SAT JUL 20 2019

NOTE:"FAIR" INDICATES FEW OR NO CLOUDS BELOW 12,000 FEET WITH NO 
SIGNIFICANT WEATHER AND/OR OBSTRUCTIONS TO VISIBILITY.

WAZ507-509-555>559-201600-
SEATTLE, TACOMA, EVERETT, AND VICINITY
  
CITY           SKY/WX    TMP DP  RH WIND       PRES   REMARKS
EVERETT        SUNNY     56  51  84 N6        30.14R                  
BOEING FIELD   SUNNY     60  50  69 VRB3      30.13R                  
RENTON         SUNNY     59  50  72 N7        30.12F HAZE             
SEATAC AIRPORT SUNNY     59  49  69 N9        30.13R                  
JBLM-MCCHORD   SUNNY     56  52  85 CALM      30.13R                  
PUYALLUP       FAIR      59  52  77 CALM      30.13S                  
BREMERTON      NOT AVBL                                               
JBLM-FT LEWIS  NOT AVBL                                               
TACOMA NARROWS SUNNY     56  50  80 NE5       30.13R                  
$$
 
WAZ001-503-506-510-514-515-201600-
NORTH INTERIOR
  
CITY           SKY/WX    TMP DP  RH WIND       PRES   REMARKS
BELLINGHAM     SUNNY     58  52  80 CALM      30.14R                  
FRIDAY HARBOR  SUNNY     57  51  80 CALM      30.14S                  
EASTSOUND      SUNNY     59  52  77 CALM      30.13R                  
PORT ANGELES   SUNNY     59  46  62 W3        30.15R                  
EDIZ HOOK      FAIR      54  49  81 CALM      30.15R                  
PORT TOWNSEND  FAIR      55  50  82 CALM      30.13S                  
NAS WHIDBEY    MOSUNNY   57  52  83 W3        30.18R                  
ARLINGTON      SUNNY     53  49  86 MISG      30.14S                  
BURLINGTON     SUNNY     59  55  88 CALM      30.14R                  
$$
 
WAZ020-022-039-040-504-511-512-201600-
SOUTHWEST INTERIOR
  
CITY           SKY/WX    TMP DP  RH WIND       PRES   REMARKS
SHELTON        SUNNY     56  50  80 CALM      30.11S                  
OLYMPIA        SUNNY     57  51  80 NE5       30.13R                  
CHEHALIS       FAIR      57  54  88 N7        30.12S                  
KELSO          SUNNY     57  49  74 VRB3      30.10S                  
VANCOUVER      SUNNY     59  49  69 CALM      30.08R                  
SCAPPOOSE, OR  SUNNY     61  48  62 N10       30.07S                  
PORTLAND, OR   SUNNY     59  49  69 CALM      30.08S                  
$$
 
WAZ021-516-517-201600-
WASHINGTON COAST
  
CITY           SKY/WX    TMP DP  RH WIND       PRES   REMARKS
FORKS          FOG       51  51 100 VRB3      30.12S VSB 1/2          
HOQUIAM        MOSUNNY   52  52 100 E5        30.13S FOG              
ASTORIA, OR    SUNNY     55  52  89 CALM      30.10R                  
$$
 
WAZ019-023-024-040-567>569-201600-
CASCADE MOUNTAINS AND COLUMBIA GORGE
  
CITY           SKY/WX    TMP DP  RH WIND       PRES   REMARKS
STAMPEDE PASS  SUNNY     53  45  74 VRB3      30.14R                  
TROUTDALE, OR  SUNNY     58  48  69 E3        30.08S                  
HOOD RIVER, OR SUNNY     54  43  66 CALM      30.10R                  
THE DALLES, OR SUNNY     60  47  61 W5        30.08R                  
$$

WAZ026-027-041>044-520-521-201600-
EAST SLOPES
  
CITY           SKY/WX    TMP DP  RH WIND       PRES   REMARKS
OMAK           MOSUNNY   63  40  42 N10       30.11R                  
WENATCHEE      SUNNY     57  43  59 W13       30.10S                  
ELLENSBURG     SUNNY     56  45  66 E5        30.11R                  
YAKIMA         SUNNY     60  44  55 W6        30.10R                  
SUNNYSIDE ARPT SUNNY     56  47  70 CALM      30.09                   
YAKIMA TC      FAIR      61  41  47 N6        30.08R                  
$$

WAZ028-034-035-201600-
COLUMBIA BASIN
  
CITY           SKY/WX    TMP DP  RH WIND       PRES   REMARKS
EPHRATA        SUNNY     67  40  37 N9        30.07R                  
MOSES LAKE     SUNNY     62  39  42 NE5       30.09R                  
PASCO          SUNNY     61  44  53 CALM      30.08R                  
RICHLAND ARPT  SUNNY     63  44  50 SE3       30.08                   
HERMISTON, OR  SUNNY     61  39  44 CALM      30.08R                  
$$

WAZ036>038-201600-
NORTHEAST WASHINGTON
  
CITY           SKY/WX    TMP DP  RH WIND       PRES   REMARKS
SPOKANE GEIGER MOSUNNY   57  40  52 NE7       30.11R                  
SPOKANE FELTS  SUNNY     57  42  57 CALM      30.11R                  
FAIRCHILD AFB  NOT AVBL                                               
COEURDALENE,ID SUNNY     57  43  59 NE8       30.12R                  
DEER PARK      SUNNY     59  42  53 E3        30.11R                  
$$

WAZ029>033-201600-
SOUTHEAST WASHINGTON
  
CITY           SKY/WX    TMP DP  RH WIND       PRES   REMARKS
PULLMAN        SUNNY     58  39  49 CALM      30.11R                  
LEWISTON, ID   SUNNY     58  40  51 CALM      30.09R                  
WALLA WALLA    SUNNY     61  38  42 S6        30.08R                  
PENDLETON, OR  SUNNY     57  36  45 SE5       30.08R                  
$$